TimeEDT,TemperatureF,Dew PointF,Humidity,Sea Level PressureIn,VisibilityMPH,Wind Direction,Wind SpeedMPH,Gust SpeedMPH,PrecipitationIn,Events,Conditions,WindDirDegrees,DateUTC
12:05 AM,48.2,44.6,87,30.06,10.0,WNW,9.2,-,0.00,,Overcast,290,2012-10-08 04:05:00
12:43 AM,48.2,44.6,87,30.08,8.0,WNW,8.1,-,0.01,Rain,Light Rain,290,2012-10-08 04:43:00
12:52 AM,48.0,45.0,89,30.09,10.0,West,8.1,-,0.01,Rain,Light Rain,280,2012-10-08 04:52:00
1:52 AM,46.9,45.0,93,30.10,10.0,WNW,3.5,-,0.01,,Overcast,290,2012-10-08 05:52:00
2:52 AM,46.9,44.1,90,30.08,10.0,WNW,4.6,-,N/A,,Mostly Cloudy,300,2012-10-08 06:52:00
3:52 AM,45.0,43.0,93,30.09,10.0,NW,4.6,-,N/A,,Clear,310,2012-10-08 07:52:00
4:52 AM,43.0,41.0,93,30.11,10.0,WNW,4.6,-,N/A,,Clear,290,2012-10-08 08:52:00
5:52 AM,43.0,41.0,93,30.14,10.0,West,3.5,-,N/A,,Clear,280,2012-10-08 09:52:00
6:52 AM,39.9,37.9,93,30.14,5.0,Calm,Calm,-,N/A,,Clear,0,2012-10-08 10:52:00
7:19 AM,39.2,39.2,100,30.16,2.5,Calm,Calm,-,N/A,,Clear,0,2012-10-08 11:19:00
7:27 AM,41.0,39.2,93,30.16,5.0,Calm,Calm,-,N/A,,Clear,0,2012-10-08 11:27:00
7:52 AM,44.1,42.1,93,30.17,10.0,NW,4.6,-,N/A,,Clear,310,2012-10-08 11:52:00
8:52 AM,48.9,44.1,83,30.21,10.0,NW,5.8,-,N/A,,Clear,320,2012-10-08 12:52:00
9:52 AM,53.1,44.1,71,30.22,10.0,North,6.9,-,N/A,,Clear,350,2012-10-08 13:52:00
10:52 AM,55.0,43.0,64,30.24,10.0,NNW,5.8,-,N/A,,Partly Cloudy,340,2012-10-08 14:52:00
11:12 AM,53.6,42.8,67,30.24,10.0,NNW,4.6,-,N/A,,Mostly Cloudy,330,2012-10-08 15:12:00
11:52 AM,55.0,41.0,59,30.25,10.0,Calm,Calm,-,N/A,,Scattered Clouds,0,2012-10-08 15:52:00
12:52 PM,55.9,43.0,62,30.25,10.0,NNE,8.1,-,N/A,,Overcast,20,2012-10-08 16:52:00
1:52 PM,55.0,41.0,59,30.25,10.0,ENE,5.8,-,N/A,,Partly Cloudy,70,2012-10-08 17:52:00
2:52 PM,55.0,42.1,62,30.27,10.0,East,5.8,-,N/A,,Overcast,90,2012-10-08 18:52:00
3:52 PM,54.0,42.1,64,30.26,10.0,ENE,5.8,-,N/A,,Mostly Cloudy,70,2012-10-08 19:52:00
4:52 PM,53.1,41.0,64,30.27,10.0,East,5.8,-,N/A,,Clear,90,2012-10-08 20:52:00
6:52 PM,51.1,45.0,80,30.30,10.0,Calm,Calm,-,N/A,,Clear,0,2012-10-08 22:52:00
7:52 PM,48.9,45.0,86,30.30,10.0,Calm,Calm,-,N/A,,Scattered Clouds,0,2012-10-08 23:52:00
8:52 PM,48.9,45.0,86,30.32,10.0,Calm,Calm,-,N/A,,Clear,0,2012-10-09 00:52:00
9:52 PM,50.0,45.0,83,30.31,10.0,Calm,Calm,-,N/A,,Clear,0,2012-10-09 01:52:00
10:52 PM,51.1,45.0,80,30.30,10.0,NE,3.5,-,N/A,,Clear,50,2012-10-09 02:52:00
11:52 PM,48.9,45.0,86,30.29,10.0,East,3.5,-,N/A,,Scattered Clouds,80,2012-10-09 03:52:00